Regional Weather Roundup
Issued by NWS

Home | Current Version | Previous Version | Graphics & Text | Print | Product List | Glossary On
Versions: 1 2 3 4 5 6 7 8 9 10 11 12 13 14 15 16 17 18 19 20 21 22 23 24 25 26 27 28 29 30 31 32 33 34 35 36 37 38 39 40 41 42 43 44 45 46 47 48 49 50
000
ASUS43 KLSX 231459
RWRMO

WEATHER SUMMARY FOR MISSOURI
NATIONAL WEATHER SERVICE SPRINGFIELD MO
1000 AM CDT THU OCT 23 2014

NOTE: "FAIR" INDICATES FEW OR NO CLOUDS BELOW 12,000 FEET WITH NO
       SIGNIFICANT WEATHER AND/OR OBSTRUCTIONS TO VISIBILITY.
       CURRENT SKY AND/OR WEATHER CONDITIONS ARE NOT AVAILABLE FOR
       CHILLICOTHE AND FARMINGTON.

MOZ001>031-035>038-043-044-053-054-231600-
...NORTHERN AND WESTERN MISSOURI...

CITY           SKY/WX    TMP DP  RH WIND       PRES   REMARKS
KANSAS CTY INT PTSUNNY   61  59  93 S10       30.09R
KANSAS C DTWN  PTSUNNY   63  59  87 S9        30.09S
LEE`S SUMMIT   CLOUDY    58  56  93 S7        30.11R
ST JOSEPH      CLOUDY    61  59  93 S3        30.08R
KIRKSVILLE     CLOUDY    55  49  80 S8        30.13R

$$
MOZ066>068-077>081-088>096-101>105-231600-
...SOUTHWEST MISSOURI...

CITY           SKY/WX    TMP DP  RH WIND       PRES   REMARKS
SPRINGFIELD    LGT RAIN  54  45  71 S9        30.18S
JOPLIN         LGT RAIN  57  54  89 SW9       30.18R

$$
MOZ032>034-039>042-045>050-055>058-069>072-231600-
...CENTRAL MISSOURI...

CITY           SKY/WX    TMP DP  RH WIND       PRES   REMARKS
COLUMBIA       CLOUDY    53  45  74 S15       30.16S
JEFFERSON CITY CLOUDY    53  44  71 VRB3      30.18R
ROLLA          CLOUDY    51  42  71 S13       30.18S
SEDALIA        CLOUDY    58  48  69 S13       30.15R
OSAGE BEACH    CLOUDY    54  43  66 S6        30.17S

$$
MOZ051-052-059>065-231600-
...EAST CENTRAL MISSOURI...

CITY           SKY/WX    TMP DP  RH WIND       PRES   REMARKS
ST LOUIS INTL  PTSUNNY   55  43  63 S8        30.22R
SPIRIT OF STL  PTSUNNY   53  47  79 NW5       30.22R
ST CHARLES     CLOUDY    51  45  79 S3        30.22R

$$
MOZ072>076-082>087-097>100-106>115-231600-
...SOUTH CENTRAL AND SOUTHEAST MISSOURI...

CITY           SKY/WX    TMP DP  RH WIND       PRES   REMARKS
CAPE GIRARDEAU MOSUNNY   52  45  77 SE8       30.25S
FARMINGTON     PTSUNNY   48  45  87 SE5       30.23S
POPLAR BLUFF   PTSUNNY   50  44  80 CALM      30.22F
WEST PLAINS    CLOUDY    52  43  71 S5        30.23R

$$



USA.gov is the U.S. government's official web portal to all federal, state and local government web resources and services.